Regional Weather Roundup
Issued by NWS Newport/Morehead, NC

Current Version | Previous Version | Graphics & Text | Print | Product List | Glossary On
Versions: 1 2 3 4 5 6 7 8 9 10 11 12 13 14 15 16 17 18 19 20 21 22 23 24 25 26 27 28 29 30 31 32 33 34 35 36 37 38 39 40 41 42 43 44 45 46 47 48 49 50
000
ASUS42 KMHX 060724
RWRMHX
WEATHER ROUNDUP FOR EASTERN NORTH CAROLINA
NATIONAL WEATHER SERVICE NEWPORT/MOREHEAD CITY NC
300 AM EDT WED MAY 06 2015

NOTE: "FAIR" INDICATES FEW OR NO CLOUDS BELOW 12,000 FEET
WITH NO SIGNIFICANT WEATHER AND/OR OBSTRUCTIONS TO VISIBILITY

NCZ015>017-031-032-045>047-102-103-060800-
NORTH COAST

CITY           SKY/WX    TMP DP  RH WIND       PRES   REMARKS
EDENTON        PTCLDY    57  55  91 S5        30.25F
ELIZABETH CITY PTCLDY    61  56  83 VRB3      30.25F
KITTY HAWK     MOSUNNY   64  59  86 CALM      30.25F
MANTEO         PTCLDY    60  58  93 CALM      30.26F

$$

NCZ045>047-081-094-103-104-060800-
CENTRAL COAST

CITY           SKY/WX    TMP DP  RH WIND       PRES   REMARKS
FRISCO         MOCLDY    57  54  89 CALM      30.26F
SWANQUARTER      N/A     57 N/A N/A E2        30.21F

$$

NCZ095-097-098-100-101-060800-
SOUTHERN COAST

CITY           SKY/WX    TMP DP  RH WIND       PRES   REMARKS
BEAUFORT       MOCLDY    58  57  97 E5        30.25F
CEDAR ISLAND     N/A     59 N/A N/A NE1       30.30S
JACKSONVILLE   MOCLDY    56  53  90 CALM      30.24F
PINEY ISLAND   PTSUNNY  N/A N/A N/A CALM      30.25F
WILMINGTON     MOCLDY    58  55  90 NE3       30.24F


$$

NCZ011>013-027>030-043-044-078>080-089-090>093-098-060800-
COASTAL PLAIN

CITY           SKY/WX    TMP DP  RH WIND       PRES   REMARKS
AHOSKIE        CLEAR     55  51  86 CALM      30.26F
CLINTON        PTCLDY    56  55  96 CALM      30.26F
ELIZABETHTOWN  MOCLDY    56  55  96 CALM      30.24F
GOLDSBORO      PTCLDY    55  53  90 CALM      30.24F
GREENVILLE     PTCLDY    55  54  94 CALM      30.26F
HAVELOCK       MOCLDY    55  51  86 CALM      30.26F
KENANSVILLE    MOCLDY    52  50  94 CALM      30.27S
KINSTON        MOCLDY    55  53  92 CALM      30.26F
NEW BERN       MOCLDY    54  50  86 CALM      30.27F
RICHLANDS      MOCLDY    50  45  81 CALM      30.25F
ROCKY MOUNT    CLEAR     56  53  90 CALM      30.26F
WASHINGTON     MOCLDY    55  53  91 CALM      30.26F
WHITEVILLE     MOCLDY    55  54  94 CALM      30.23F

$$

AMZ130-135-150-152-154-156-158-170-250-252-270-ANZ085-086-088-633-658-670-060800-
MARINE OBSERVATIONS

STATION/POSITION TIME  TEMP    WIND        PRES    WAVE   SWELL
                       AIR SEA DIR/SP/G            HT/PER HT/PER
                 (UTC) (F)     (DEG/KT/KT) (MB)    (FT/S) (FT/S)
CHESAPEAKE LIGHT 0700   63     210/ 16/ 16 1024.4
64 E VA BEACH    0650   60 57  200/ 10/ 10 1024.1    2/ 8   2/ 8
DUCK             0700   66 51  190/  7/  8 1023.4
2 E DUCK         0611      53                N/A     1/11   2/11
OREGON INLET     0700   66 71  170/  5/  5 1024.6
13E OREGON INLT  0700      58                N/A     3/11   2/11
HATTERAS CG      0700   67 67  140/  3/  5 1024.2
DIAMOND BUOY     0650   70 75  160/  6/  8 1024.8    3/ 9   3/ 9
CAPE LOOKOUT     0700   68      80/  4/  5 1024.1
BEAUFORT LAB     0700   64 68   70/  3/  3 1023.4
27 SE WRIGHTSVLE 0700   68 71   90/  6/  8   N/A
5 SE WRIGHTSVLE  0608   69 69   50/  8/ 10 1024.2
225 S CAPE HAT   0650   70 71  100/ 16/ 19 1022.5    7/ 8   3/ 8
41 SE CHARLESTON 0650   74 73   80/ 14/ 16 1021.5    5/ 7   3/ 7

$$


USA.gov is the U.S. government's official web portal to all federal, state and local government web resources and services.